Location: Buckenweiler
(49.0667°N, 10.2500°E)
Time: 21:39:44
(UTC+00:00)

Cosmos 1633 Rocket - Pass Details

Date: 18 January 2026
Orbit: 600 x 616 km, 82.5° (Epoch: 18 February)

Event Time Altitude Azimuth Distance (km) Brightness Sun altitude
Rises 06:22:01 0° 214° (SW) 2,857 6.4 -7.2°
Reaches altitude 10° 06:24:26 10° 225° (SW) 1,955 5.4 -6.8°
Maximum altitude 06:28:17 31° 288° (WNW) 1,077 3.8 -6.2°
Drops below altitude 10° 06:32:09 10° 351° (N) 1,961 5.3 -5.7°
Sets 06:34:35 0° 2° (N) 2,867 6.2 -5.3°
